[[{"header":{"parameterUnit":"m.s-1","parameterCategory":1,"la1":30.2991,"la2":30.254,"lo1":-89.0895,"lo2":-89.0444,"dy":0.0017,"dx":0.0017,"nx":28,"ny":28,"refTime":"2023-09-09T09:00:00:Z","depth":0,"parameterNumber":2,"parameterNumberName":"U-component_of_WINDS"},"data":[0,0,0,0,0,0,0,0,0,0,0,0,0,0,0,0,0,0,0,0,0,0,0,0,0,0,0,0,0,0,0,0,0,0,0,0,0,0,0,0,0,0,0,0,0,0,0,0,0,0,0,0,0,0,0,0,0,0,-0.3069,-0.3068,0,-0.2977,-0.2976,-0.2975,-0.2929,-0.2929,-0.2929,-0.2929,-0.2832,-0.2829,-0.2827,0,0,0,0,0,0,0,0,0,0,0,0,0,-0.3203,-0.3201,-0.3069,-0.3068,-0.3067,-0.2977,-0.2976,-0.2974,-0.2929,-0.2929,-0.2929,-0.2929,-0.2833,-0.283,-0.2826,0,0,0,0,0,0,0,0,0,0,0,0,0,-0.3132,-0.3201,-0.3069,-0.3033,-0.3029,-0.2977,-0.2976,-0.2974,-0.2929,-0.2929,-0.2929,-0.2929,-0.2834,-0.283,-0.2826,-0.2802,0,0,-0.2814,-0.2812,0,0,0,0,0,0,0,0,-0.3136,-0.3127,-0.304,-0.3036,-0.3031,-0.2964,-0.2987,-0.2916,-0.2929,-0.2967,-0.2929,-0.2929,-0.2876,-0.2868,-0.2851,-0.2797,-0.2793,-0.2814,-0.2811,-0.281,-0.2809,0,0,0,0,0,0,0,-0.3141,-0.313,-0.3032,-0.3038,-0.3033,-0.3021,-0.3011,-0.2974,-0.2922,-0.2964,-0.296,-0.295,-0.2873,-0.2855,-0.2848,-0.2792,-0.2814,-0.281,-0.2808,-0.2807,-0.2714,-0.2714,0,0,0,0,0,0,-0.3152,-0.3135,-0.3035,-0.3029,-0.3085,-0.3019,-0.3007,-0.2986,-0.2923,-0.2913,-0.295,-0.2948,-0.2861,-0.2853,-0.2845,-0.2813,-0.281,-0.2806,-0.2804,-0.2714,-0.2714,-0.2714,0,0,0,0,0,0,-0.3155,-0.3143,-0.3039,-0.3081,-0.3067,-0.3016,-0.2993,-0.2984,-0.2965,-0.2912,-0.2903,-0.2941,-0.2861,-0.285,-0.2813,-0.2809,-0.2804,-0.2801,-0.2714,-0.2714,-0.2714,-0.2748,0,0,0,0,0,0,-0.3159,-0.3145,-0.3135,-0.3081,-0.3065,-0.301,-0.2992,-0.2982,-0.2959,-0.2956,-0.2901,-0.2892,-0.286,-0.2819,-0.2809,-0.2803,-0.2798,-0.2714,-0.2714,-0.2714,-0.2747,-0.2749,-0.2751,0,0,0,0,0,-0.3164,-0.3148,-0.3135,-0.3123,-0.3052,-0.3009,-0.3,-0.2965,-0.2959,-0.2949,-0.2915,-0.2894,-0.2811,-0.2816,-0.2804,-0.2797,-0.2714,-0.2714,-0.2714,-0.2746,-0.2749,-0.2751,0,0,0,0,0,0,-0.3201,-0.314,-0.3125,-0.3091,-0.3056,-0.3002,-0.2988,-0.2968,-0.2933,-0.2931,-0.2888,-0.2876,-0.2843,-0.2816,-0.2823,-0.277,-0.2761,-0.2758,-0.2789,-0.2791,-0.2793,-0.28,-0.2795,0,0,0,0,0,-0.3206,-0.3177,-0.3125,-0.31,-0.3083,-0.3039,-0.3019,-0.2995,-0.2956,-0.2941,-0.2904,-0.2866,-0.2832,-0.281,-0.2775,-0.2743,-0.2731,-0.2732,-0.2734,-0.2736,-0.2734,-0.2716,-0.2716,-0.2713,-0.2713,-0.2713,0,0,-0.3215,-0.3178,-0.3162,-0.3107,-0.3076,-0.3047,-0.3026,-0.2996,-0.2973,-0.2935,-0.2899,-0.2871,-0.2826,-0.2792,-0.2775,-0.2768,-0.2733,-0.2736,-0.2738,-0.2734,-0.2716,-0.2716,-0.2716,-0.2713,-0.2713,-0.2713,0,0,-0.3215,-0.3185,-0.3161,-0.3131,-0.3087,-0.3057,-0.3052,-0.3001,-0.2981,-0.2944,-0.2915,-0.2887,-0.2829,-0.2798,-0.2775,-0.2766,-0.2745,-0.2756,-0.2765,-0.2748,-0.2748,-0.2748,-0.2745,-0.2745,-0.2754,-0.2754,-0.2754,0,-0.3232,-0.3187,-0.3151,-0.3122,-0.3099,-0.3065,-0.304,-0.3013,-0.2959,-0.2943,-0.2937,-0.2864,-0.2831,-0.279,-0.2788,-0.277,-0.2762,-0.2762,-0.2751,-0.2751,-0.275,-0.2747,-0.2746,-0.2756,-0.2756,-0.2756,-0.2755,0,-0.3209,-0.3178,-0.3164,-0.3114,-0.3089,-0.3063,-0.3023,-0.3002,-0.298,-0.2952,-0.2914,-0.2874,-0.2831,-0.282,-0.2798,-0.2775,-0.2773,-0.276,-0.2749,-0.2753,-0.2749,-0.2747,-0.2758,-0.2758,-0.2757,-0.2757,0,0,-0.323,-0.3161,-0.3157,-0.3134,-0.3083,-0.3058,-0.303,-0.2989,-0.2972,-0.2936,-0.2911,-0.2863,-0.2851,-0.2825,-0.28,-0.2785,-0.2781,-0.2773,-0.2771,-0.2776,-0.2754,-0.2764,-0.2763,-0.2767,-0.2766,-0.2766,-0.2758,0,-0.3223,-0.3173,-0.314,-0.3102,-0.3074,-0.3042,-0.3017,-0.2983,-0.2956,-0.2927,-0.2897,-0.2864,-0.285,-0.2834,-0.2818,-0.2785,-0.2775,-0.2785,-0.2743,-0.2742,-0.2755,-0.2761,-0.2771,-0.2765,-0.2756,-0.2755,-0.2755,0,-0.3209,-0.3175,-0.3135,-0.3088,-0.3074,-0.3053,-0.3014,-0.2987,-0.2947,-0.2929,-0.2901,-0.2875,-0.2844,-0.2837,-0.2793,-0.2801,-0.2782,-0.2763,-0.2762,-0.2756,-0.2749,-0.2756,-0.2762,-0.2762,-0.2752,-0.2753,-0.2753,0,-0.3228,-0.3173,-0.3142,-0.3123,-0.3067,-0.3053,-0.3029,-0.299,-0.2968,-0.2933,-0.2918,-0.288,-0.2859,-0.283,-0.2795,-0.2792,-0.2755,-0.2744,-0.2738,-0.2739,-0.2732,-0.2733,-0.2736,-0.272,-0.272,-0.272,-0.272,0,-0.3224,-0.3201,-0.315,-0.3131,-0.3104,-0.3067,-0.3041,-0.3014,-0.2979,-0.2954,-0.2924,-0.2901,-0.2856,-0.2827,-0.2799,-0.2768,-0.2759,-0.2743,-0.2736,-0.2745,-0.2747,-0.2732,-0.2732,-0.272,-0.272,-0.272,-0.272,0,-0.3241,-0.3206,-0.317,-0.3121,-0.3108,-0.309,-0.3047,-0.3028,-0.3,-0.2968,-0.2959,-0.2914,-0.2879,-0.2842,-0.2793,-0.2775,-0.2745,-0.2735,-0.2758,-0.2754,-0.2751,-0.2752,-0.2744,-0.2741,-0.2728,-0.2728,-0.2728,0,-0.3241,-0.3223,-0.3172,-0.3153,-0.313,-0.3101,-0.3078,-0.3041,-0.3019,-0.2974,-0.2959,-0.2922,-0.2891,-0.2836,-0.2799,-0.2762,-0.2751,-0.2751,-0.2745,-0.2756,-0.2751,-0.2753,-0.2751,-0.2753,-0.2753,-0.2753,-0.2753,0,-0.3244,-0.3228,-0.3198,-0.3162,-0.3136,-0.3106,-0.3074,-0.306,-0.3017,-0.2994,-0.2958,-0.2934,-0.2886,-0.2849,-0.2808,-0.2783,-0.2761,-0.2756,-0.2752,-0.2762,-0.2777,-0.2769,-0.2763,-0.2756,-0.2756,-0.2755,-0.2755,-0.2755,-0.3252,-0.3235,-0.3197,-0.3164,-0.3137,-0.3108,-0.3087,-0.3057,-0.3027,-0.2986,-0.2966,-0.293,-0.2892,-0.2835,-0.281,-0.2782,-0.2775,-0.277,-0.2769,-0.2768,-0.2771,-0.2782,-0.2774,-0.2774,-0.2774,-0.2774,-0.2774,0,-0.3254,-0.3229,-0.3199,-0.3156,-0.3131,-0.3114,-0.3078,-0.3058,-0.3027,-0.2994,-0.2964,-0.2924,-0.2889,-0.285,-0.2812,-0.2797,-0.2786,-0.2788,-0.2789,-0.2784,-0.2779,-0.2786,-0.2798,-0.2798,-0.2798,-0.2798,-0.2798,-0.2798,-0.3252,-0.3222,-0.3202,-0.3158,-0.3132,-0.3098,-0.3079,-0.3052,-0.3026,-0.2982,-0.2954,-0.2929,-0.2893,-0.2853,-0.282,-0.281,-0.2797,-0.2803,-0.2789,-0.2786,-0.2784,-0.2782,-0.2788,-0.28,-0.28,-0.2796,-0.2796,-0.2796]},{"header":{"parameterUnit":"m.s-1","parameterCategory":1,"la1":30.2991,"la2":30.254,"lo1":-89.0895,"lo2":-89.0444,"dy":0.0017,"dx":0.0017,"nx":28,"ny":28,"refTime":"2023-09-09T09:00:00:Z","depth":0,"parameterNumber":3,"parameterNumberName":"V-component_of_WINDS"},"data":[0,0,0,0,0,0,0,0,0,0,0,0,0,0,0,0,0,0,0,0,0,0,0,0,0,0,0,0,0,0,0,0,0,0,0,0,0,0,0,0,0,0,0,0,0,0,0,0,0,0,0,0,0,0,0,0,0,0,2.4715,2.4716,0,2.4762,2.4763,2.4763,2.4793,2.4793,2.4794,2.4794,2.4838,2.4839,2.484,0,0,0,0,0,0,0,0,0,0,0,0,0,2.4642,2.4644,2.4715,2.4716,2.4716,2.4762,2.4763,2.4764,2.4793,2.4793,2.4794,2.4794,2.4837,2.4839,2.484,0,0,0,0,0,0,0,0,0,0,0,0,0,2.468,2.4644,2.4715,2.4737,2.4739,2.4762,2.4763,2.4764,2.4793,2.4794,2.4794,2.4794,2.4837,2.4838,2.484,2.4844,0,0,2.4844,2.4845,0,0,0,0,0,0,0,0,2.4678,2.4683,2.4733,2.4735,2.4738,2.4772,2.4753,2.479,2.4793,2.4773,2.4794,2.4794,2.4815,2.4819,2.4827,2.4846,2.4847,2.4845,2.4845,2.4846,2.4847,0,0,0,0,0,0,0,2.4675,2.4681,2.4734,2.4734,2.4737,2.4741,2.4747,2.476,2.4792,2.4774,2.4777,2.4782,2.4817,2.4825,2.4828,2.4848,2.4845,2.4846,2.4847,2.4847,2.4866,2.4866,0,0,0,0,0,0,2.467,2.4678,2.4732,2.4735,2.4708,2.4742,2.4749,2.4761,2.4792,2.4797,2.4782,2.4783,2.4823,2.4826,2.483,2.4833,2.4846,2.4847,2.4848,2.4866,2.4866,2.4866,0,0,0,0,0,0,2.4668,2.4675,2.473,2.4707,2.4715,2.4744,2.4757,2.4762,2.477,2.4797,2.4802,2.4785,2.4823,2.4828,2.4839,2.4835,2.4848,2.485,2.4867,2.4866,2.4866,2.484,0,0,0,0,0,0,2.4666,2.4674,2.4678,2.4707,2.4716,2.4741,2.4757,2.4762,2.4773,2.4776,2.4802,2.4806,2.4824,2.4836,2.484,2.4837,2.4851,2.4867,2.4867,2.4866,2.4842,2.4839,2.4837,0,0,0,0,0,2.4664,2.4669,2.4678,2.4684,2.4722,2.4741,2.4746,2.4767,2.4773,2.4775,2.4792,2.4806,2.4834,2.4837,2.4842,2.4839,2.4868,2.4867,2.4866,2.4843,2.4839,2.4837,0,0,0,0,0,0,2.4639,2.4674,2.4684,2.47,2.4717,2.4746,2.4751,2.4763,2.4778,2.478,2.4803,2.4809,2.4816,2.4829,2.4832,2.4841,2.4852,2.4852,2.4833,2.483,2.4828,2.4824,2.4852,0,0,0,0,0,2.4635,2.4649,2.4679,2.4689,2.4697,2.4722,2.4731,2.4745,2.4764,2.4771,2.4789,2.4804,2.4816,2.4824,2.4837,2.4843,2.4847,2.4843,2.484,2.4838,2.4837,2.4837,2.4834,2.4863,2.4863,2.4863,0,0,2.4628,2.4648,2.4656,2.4685,2.47,2.4711,2.4728,2.4741,2.4749,2.4773,2.4784,2.4797,2.4815,2.4823,2.4827,2.4833,2.483,2.4837,2.4835,2.4836,2.4836,2.4833,2.483,2.4862,2.4862,2.4862,0,0,2.462,2.4638,2.4648,2.4661,2.4684,2.4699,2.4701,2.4727,2.4737,2.4748,2.4765,2.4773,2.4795,2.4806,2.4815,2.4804,2.4816,2.4808,2.4794,2.4793,2.4791,2.4789,2.4782,2.478,2.4807,2.4807,2.4807,0,2.4608,2.4628,2.465,2.4661,2.4671,2.4692,2.4699,2.4711,2.4736,2.4741,2.4748,2.4772,2.4787,2.4795,2.4792,2.4799,2.4799,2.4805,2.479,2.4788,2.4787,2.478,2.4778,2.4806,2.4806,2.4806,2.4806,0,2.461,2.4623,2.4627,2.465,2.466,2.4669,2.4689,2.4696,2.4708,2.4721,2.473,2.4747,2.4762,2.4765,2.4777,2.4773,2.4776,2.4786,2.4798,2.4782,2.4776,2.4774,2.4804,2.4804,2.4805,2.4805,0,0,2.4591,2.4623,2.4624,2.4632,2.4656,2.4665,2.4672,2.4687,2.4691,2.4706,2.471,2.4725,2.4733,2.4742,2.4755,2.4755,2.474,2.4764,2.4765,2.4757,2.4732,2.4723,2.472,2.4748,2.4748,2.4748,2.473,0,2.4585,2.4601,2.4619,2.4628,2.4637,2.4655,2.466,2.4673,2.4685,2.4692,2.4704,2.4713,2.4725,2.473,2.473,2.4742,2.4735,2.4744,2.4749,2.4749,2.4743,2.4718,2.471,2.4692,2.4728,2.4728,2.4727,0,2.4582,2.4595,2.4604,2.4622,2.4627,2.4632,2.4644,2.4652,2.4665,2.4673,2.468,2.4693,2.4698,2.4708,2.4712,2.4717,2.472,2.4725,2.4725,2.4725,2.4737,2.4715,2.4688,2.4684,2.4725,2.4725,2.4725,0,2.4563,2.4583,2.459,2.4597,2.4619,2.4621,2.463,2.4644,2.4649,2.4659,2.4662,2.4672,2.4677,2.4682,2.4695,2.4702,2.4696,2.4709,2.47,2.4699,2.4698,2.4697,2.4668,2.4702,2.4702,2.4702,2.4702,0,2.4555,2.4559,2.4582,2.4586,2.4589,2.4607,2.4609,2.4619,2.463,2.4634,2.4649,2.4652,2.467,2.4674,2.4684,2.4683,2.4686,2.469,2.4692,2.4688,2.4687,2.4689,2.469,2.4701,2.4702,2.4702,2.4702,0,2.4536,2.4552,2.456,2.4578,2.4583,2.4584,2.4599,2.4601,2.4612,2.4616,2.4617,2.4633,2.4638,2.4651,2.466,2.4666,2.4661,2.4667,2.4657,2.4658,2.4647,2.4647,2.4617,2.4612,2.4651,2.4651,2.4651,0,2.4529,2.4532,2.455,2.4554,2.4562,2.4568,2.4573,2.4589,2.4593,2.4605,2.4605,2.461,2.4616,2.4621,2.4632,2.4637,2.4641,2.463,2.4642,2.4636,2.4638,2.4636,2.4635,2.4627,2.4627,2.4627,2.4626,0,2.4514,2.452,2.4528,2.4536,2.4542,2.4549,2.4558,2.4559,2.4576,2.4579,2.4584,2.4588,2.4594,2.4598,2.4603,2.4609,2.4619,2.4622,2.462,2.4615,2.4607,2.4608,2.4648,2.4623,2.4623,2.4623,2.4624,2.4624,2.4499,2.4501,2.4512,2.4518,2.4526,2.4532,2.4533,2.4543,2.4547,2.4554,2.4562,2.4564,2.4572,2.458,2.4585,2.4584,2.459,2.4588,2.4587,2.4585,2.4582,2.4608,2.4586,2.4586,2.4586,2.4586,2.4586,0,2.4482,2.4489,2.4495,2.4505,2.4508,2.4517,2.4525,2.4526,2.4529,2.4535,2.4539,2.4541,2.4543,2.4552,2.4555,2.4552,2.4556,2.4552,2.4552,2.4552,2.4578,2.4579,2.4548,2.4548,2.4548,2.4548,2.4548,2.4548,2.4474,2.4476,2.4483,2.4486,2.4493,2.4495,2.4498,2.4502,2.4507,2.4508,2.451,2.4516,2.4522,2.4524,2.4525,2.4527,2.4526,2.4519,2.4523,2.4547,2.4551,2.4554,2.4554,2.452,2.452,2.4496,2.4496,2.4496]}]]